Time,TemperatureF,DewpointF,PressureIn,WindDirection,WindDirectionDegrees,WindSpeedMPH,WindSpeedGustMPH,Humidity,HourlyPrecipIn,Conditions,Clouds,dailyrainin,SoftwareType,DateUTC
2013-09-13 00:00:00,56.7,45.0,29.39,NE,45,0.0,0.0,65,0.00,,,0.00,meteohub,2013-09-13 05:00:00,
2013-09-13 00:06:00,56.7,45.0,29.36,NE,45,0.0,0.0,65,0.00,,,0.00,meteohub,2013-09-13 05:06:00,
2013-09-13 00:11:00,56.7,45.0,29.36,NE,45,2.0,0.0,65,0.00,,,0.00,meteohub,2013-09-13 05:11:00,
2013-09-13 00:16:00,56.7,44.6,29.36,NE,45,2.0,2.0,64,0.00,,,0.00,meteohub,2013-09-13 05:16:00,
2013-09-13 00:21:00,56.7,44.6,29.39,NE,45,2.0,2.0,64,0.00,,,0.00,meteohub,2013-09-13 05:21:00,
2013-09-13 00:26:00,56.7,44.6,29.39,NE,45,2.0,3.0,64,0.00,,,0.00,meteohub,2013-09-13 05:26:00,
2013-09-13 00:31:00,56.5,44.1,29.39,NE,45,3.0,3.0,63,0.00,,,0.00,meteohub,2013-09-13 05:31:00,
2013-09-13 00:37:00,56.5,44.1,29.39,NNE,22,2.0,3.0,63,0.00,,,0.00,meteohub,2013-09-13 05:37:00,
2013-09-13 00:42:00,56.7,43.9,29.39,NE,45,2.0,3.0,62,0.00,,,0.00,meteohub,2013-09-13 05:42:00,
2013-09-13 00:47:00,56.5,43.7,29.39,NE,45,2.0,3.0,62,0.00,,,0.00,meteohub,2013-09-13 05:47:00,
2013-09-13 00:52:00,56.5,43.7,29.39,NE,45,2.0,3.0,62,0.00,,,0.00,meteohub,2013-09-13 05:52:00,
2013-09-13 00:57:00,56.3,43.5,29.39,NE,45,2.0,2.0,62,0.00,,,0.00,meteohub,2013-09-13 05:57:00,
2013-09-13 01:02:00,56.3,43.5,29.39,NE,45,1.0,2.0,62,0.00,,,0.00,meteohub,2013-09-13 06:02:00,
2013-09-13 01:07:00,56.1,43.3,29.39,NE,45,2.0,2.0,62,0.00,,,0.00,meteohub,2013-09-13 06:07:00,
2013-09-13 01:12:00,55.9,43.2,29.39,NE,45,2.0,2.0,62,0.00,,,0.00,meteohub,2013-09-13 06:12:00,
2013-09-13 01:17:00,55.8,43.0,29.39,NE,45,2.0,2.0,62,0.00,,,0.00,meteohub,2013-09-13 06:17:00,
2013-09-13 01:22:00,55.6,43.2,29.39,NE,45,2.0,2.0,63,0.00,,,0.00,meteohub,2013-09-13 06:22:00,
2013-09-13 01:27:00,55.4,43.0,29.39,NE,45,1.0,2.0,63,0.00,,,0.00,meteohub,2013-09-13 06:27:00,
2013-09-13 01:32:00,55.2,43.3,29.39,NE,45,2.0,2.0,64,0.00,,,0.00,meteohub,2013-09-13 06:32:00,
2013-09-13 01:37:00,55.0,43.2,29.39,NE,45,2.0,2.0,64,0.00,,,0.00,meteohub,2013-09-13 06:37:00,
2013-09-13 01:42:00,54.9,43.3,29.39,NE,45,2.0,2.0,65,0.00,,,0.00,meteohub,2013-09-13 06:42:00,
2013-09-13 01:47:00,54.9,43.3,29.39,NE,45,2.0,2.0,65,0.00,,,0.00,meteohub,2013-09-13 06:47:00,
2013-09-13 01:52:00,54.5,43.3,29.39,NE,45,2.0,2.0,66,0.00,,,0.00,meteohub,2013-09-13 06:52:00,
2013-09-13 01:57:00,54.5,43.3,29.39,NE,45,2.0,2.0,66,0.00,,,0.00,meteohub,2013-09-13 06:57:00,
2013-09-13 02:02:00,54.1,43.0,29.39,NE,45,2.0,2.0,66,0.00,,,0.00,meteohub,2013-09-13 07:02:00,
2013-09-13 02:07:00,54.0,43.3,29.39,NE,45,1.0,2.0,67,0.00,,,0.00,meteohub,2013-09-13 07:07:00,
2013-09-13 02:12:00,54.0,43.3,29.39,NE,45,2.0,2.0,67,0.00,,,0.00,meteohub,2013-09-13 07:12:00,
2013-09-13 02:17:00,53.8,43.9,29.39,NE,45,2.0,2.0,69,0.00,,,0.00,meteohub,2013-09-13 07:17:00,
2013-09-13 02:22:00,53.4,43.5,29.36,NE,45,2.0,2.0,69,0.00,,,0.00,meteohub,2013-09-13 07:22:00,
2013-09-13 02:27:00,53.4,43.9,29.36,NE,45,2.0,3.0,70,0.00,,,0.00,meteohub,2013-09-13 07:27:00,
2013-09-13 02:32:00,53.1,43.5,29.36,NE,45,3.0,3.0,70,0.00,,,0.00,meteohub,2013-09-13 07:32:00,
2013-09-13 02:37:00,53.1,43.5,29.42,NE,45,3.0,3.0,70,0.00,,,0.00,meteohub,2013-09-13 07:37:00,
2013-09-13 02:42:00,52.9,43.7,29.42,NE,45,3.0,3.0,71,0.00,,,0.00,meteohub,2013-09-13 07:42:00,
2013-09-13 02:47:00,52.9,44.1,29.42,NE,45,3.0,3.0,72,0.00,,,0.00,meteohub,2013-09-13 07:47:00,
2013-09-13 02:52:00,52.7,43.9,29.39,NE,45,2.0,3.0,72,0.00,,,0.00,meteohub,2013-09-13 07:52:00,
2013-09-13 02:57:00,52.5,43.7,29.39,NE,45,3.0,3.0,72,0.00,,,0.00,meteohub,2013-09-13 07:57:00,
2013-09-13 03:02:00,52.3,43.9,29.39,NE,45,2.0,3.0,73,0.00,,,0.00,meteohub,2013-09-13 08:02:00,
2013-09-13 03:07:00,52.2,43.7,29.39,NE,45,2.0,3.0,73,0.00,,,0.00,meteohub,2013-09-13 08:07:00,
2013-09-13 03:12:00,52.0,43.7,29.39,NE,45,2.0,3.0,73,0.00,,,0.00,meteohub,2013-09-13 08:12:00,
2013-09-13 03:17:00,51.8,43.9,29.39,NE,45,1.0,2.0,74,0.00,,,0.00,meteohub,2013-09-13 08:17:00,
2013-09-13 03:22:00,51.6,43.7,29.39,NE,45,1.0,2.0,74,0.00,,,0.00,meteohub,2013-09-13 08:22:00,
2013-09-13 03:27:00,51.4,43.9,29.39,NE,45,0.0,2.0,75,0.00,,,0.00,meteohub,2013-09-13 08:27:00,
2013-09-13 03:32:00,51.3,43.7,29.39,ENE,68,0.0,2.0,75,0.00,,,0.00,meteohub,2013-09-13 08:32:00,
2013-09-13 03:37:00,50.9,43.7,29.39,ENE,68,0.0,1.0,76,0.00,,,0.00,meteohub,2013-09-13 08:37:00,
2013-09-13 03:42:00,50.9,43.9,29.39,NE,45,0.0,0.0,77,0.00,,,0.00,meteohub,2013-09-13 08:42:00,
2013-09-13 03:47:00,50.7,44.1,29.39,NE,45,0.0,0.0,78,0.00,,,0.00,meteohub,2013-09-13 08:47:00,
2013-09-13 03:52:00,50.7,44.4,29.39,NE,45,0.0,0.0,79,0.00,,,0.00,meteohub,2013-09-13 08:52:00,
2013-09-13 03:57:00,50.7,44.8,29.39,NE,45,0.0,0.0,80,0.00,,,0.00,meteohub,2013-09-13 08:57:00,
2013-09-13 04:02:00,50.7,44.8,29.39,NE,45,0.0,0.0,80,0.00,,,0.00,meteohub,2013-09-13 09:02:00,
2013-09-13 04:07:00,50.5,44.6,29.39,NE,45,0.0,0.0,80,0.00,,,0.00,meteohub,2013-09-13 09:07:00,
2013-09-13 04:12:00,50.5,45.0,29.39,NE,45,0.0,0.0,81,0.00,,,0.00,meteohub,2013-09-13 09:12:00,
2013-09-13 04:17:00,50.5,45.3,29.39,ENE,68,0.0,0.0,82,0.00,,,0.00,meteohub,2013-09-13 09:17:00,
2013-09-13 04:22:00,50.2,44.6,29.39,ENE,68,0.0,0.0,81,0.00,,,0.00,meteohub,2013-09-13 09:22:00,
2013-09-13 04:27:00,50.0,44.4,29.39,ENE,68,0.0,0.0,81,0.00,,,0.00,meteohub,2013-09-13 09:27:00,
2013-09-13 04:32:00,49.8,44.2,29.39,ENE,68,0.0,0.0,81,0.00,,,0.00,meteohub,2013-09-13 09:32:00,
2013-09-13 04:37:00,49.5,44.2,29.39,ENE,68,0.0,0.0,82,0.00,,,0.00,meteohub,2013-09-13 09:37:00,
2013-09-13 04:42:00,49.5,44.2,29.39,ENE,68,0.0,0.0,82,0.00,,,0.00,meteohub,2013-09-13 09:42:00,
2013-09-13 04:47:00,49.1,43.9,29.39,ENE,68,0.0,0.0,82,0.00,,,0.00,meteohub,2013-09-13 09:47:00,
2013-09-13 04:52:00,48.9,43.7,29.39,ENE,68,0.0,0.0,82,0.00,,,0.00,meteohub,2013-09-13 09:52:00,
2013-09-13 04:57:00,48.9,44.1,29.39,ENE,68,0.0,0.0,83,0.00,,,0.00,meteohub,2013-09-13 09:57:00,
2013-09-13 05:02:00,48.4,43.5,29.39,ENE,68,0.0,0.0,83,0.00,,,0.00,meteohub,2013-09-13 10:02:00,
2013-09-13 05:07:00,48.0,42.8,29.39,ENE,68,0.0,0.0,82,0.00,,,0.00,meteohub,2013-09-13 10:07:00,
2013-09-13 05:12:00,48.0,43.2,29.39,ENE,68,0.0,0.0,83,0.00,,,0.00,meteohub,2013-09-13 10:12:00,
2013-09-13 05:17:00,48.0,43.3,29.39,ENE,68,0.0,0.0,84,0.00,,,0.00,meteohub,2013-09-13 10:17:00,
2013-09-13 05:22:00,47.8,43.2,29.39,ENE,68,0.0,0.0,84,0.00,,,0.00,meteohub,2013-09-13 10:22:00,
2013-09-13 05:27:00,47.5,43.0,29.39,ENE,68,0.0,0.0,84,0.00,,,0.00,meteohub,2013-09-13 10:27:00,
2013-09-13 05:32:00,47.3,42.8,29.39,ENE,68,0.0,0.0,84,0.00,,,0.00,meteohub,2013-09-13 10:32:00,
2013-09-13 05:37:00,47.1,42.6,29.39,ENE,68,0.0,0.0,84,0.00,,,0.00,meteohub,2013-09-13 10:37:00,
2013-09-13 05:42:00,47.1,42.8,29.39,ENE,68,0.0,0.0,85,0.00,,,0.00,meteohub,2013-09-13 10:42:00,
2013-09-13 05:47:00,47.1,43.2,29.39,ENE,68,0.0,0.0,86,0.00,,,0.00,meteohub,2013-09-13 10:47:00,
2013-09-13 05:52:00,47.1,43.5,29.39,ENE,68,0.0,0.0,87,0.00,,,0.00,meteohub,2013-09-13 10:52:00,
2013-09-13 05:57:00,47.3,43.7,29.39,ENE,68,0.0,0.0,87,0.00,,,0.00,meteohub,2013-09-13 10:57:00,
2013-09-13 06:02:00,47.1,43.5,29.39,ENE,68,0.0,0.0,87,0.00,,,0.00,meteohub,2013-09-13 11:02:00,
2013-09-13 06:07:00,47.1,43.7,29.39,ENE,68,0.0,0.0,88,0.00,,,0.00,meteohub,2013-09-13 11:07:00,
2013-09-13 06:12:00,47.1,43.7,29.39,ENE,68,0.0,0.0,88,0.00,,,0.00,meteohub,2013-09-13 11:12:00,
2013-09-13 06:17:00,46.9,43.5,29.39,ENE,68,0.0,0.0,88,0.00,,,0.00,meteohub,2013-09-13 11:17:00,
2013-09-13 06:22:00,46.9,43.5,29.39,ENE,68,0.0,0.0,88,0.00,,,0.00,meteohub,2013-09-13 11:22:00,
2013-09-13 06:27:00,46.9,43.5,29.39,ENE,68,0.0,0.0,88,0.00,,,0.00,meteohub,2013-09-13 11:27:00,
2013-09-13 06:32:00,46.9,44.2,29.39,ENE,68,0.0,0.0,90,0.00,,,0.00,meteohub,2013-09-13 11:32:00,
2013-09-13 06:37:00,46.9,44.2,29.36,ENE,68,0.0,0.0,90,0.00,,,0.00,meteohub,2013-09-13 11:37:00,
2013-09-13 06:42:00,46.8,44.1,29.36,ENE,68,0.0,0.0,90,0.00,,,0.00,meteohub,2013-09-13 11:42:00,
2013-09-13 06:47:00,46.6,43.9,29.36,ENE,68,0.0,0.0,90,0.00,,,0.00,meteohub,2013-09-13 11:47:00,
2013-09-13 06:52:00,46.6,43.9,29.36,ENE,68,0.0,0.0,90,0.00,,,0.00,meteohub,2013-09-13 11:52:00,
2013-09-13 06:57:00,46.6,44.1,29.36,ENE,68,0.0,0.0,91,0.00,,,0.00,meteohub,2013-09-13 11:57:00,
2013-09-13 07:02:00,46.6,44.1,29.36,ENE,68,0.0,0.0,91,0.00,,,0.00,meteohub,2013-09-13 12:02:00,
2013-09-13 07:07:00,46.6,43.9,29.39,ENE,68,0.0,0.0,90,0.00,,,0.00,meteohub,2013-09-13 12:07:00,
2013-09-13 07:12:00,46.8,44.2,29.39,ENE,68,0.0,0.0,91,0.00,,,0.00,meteohub,2013-09-13 12:12:00,
2013-09-13 07:17:00,46.8,44.2,29.39,ENE,68,0.0,0.0,91,0.00,,,0.00,meteohub,2013-09-13 12:17:00,
2013-09-13 07:22:00,46.8,44.2,29.39,ENE,68,0.0,0.0,91,0.00,,,0.00,meteohub,2013-09-13 12:22:00,
2013-09-13 07:27:00,46.8,44.2,29.39,ENE,68,0.0,0.0,91,0.00,,,0.00,meteohub,2013-09-13 12:27:00,
2013-09-13 07:32:00,46.9,44.4,29.39,ENE,68,0.0,0.0,91,0.00,,,0.00,meteohub,2013-09-13 12:32:00,
2013-09-13 07:37:00,47.1,45.0,29.39,ENE,68,0.0,0.0,92,0.00,,,0.00,meteohub,2013-09-13 12:37:00,
2013-09-13 07:42:00,47.1,45.0,29.39,ENE,68,0.0,0.0,92,0.00,,,0.00,meteohub,2013-09-13 12:42:00,
2013-09-13 07:47:00,47.3,45.1,29.39,ENE,68,0.0,0.0,92,0.00,,,0.00,meteohub,2013-09-13 12:47:00,
2013-09-13 07:52:00,48.0,45.9,29.39,East,90,0.0,0.0,92,0.00,,,0.00,meteohub,2013-09-13 12:52:00,
2013-09-13 07:57:00,48.2,45.7,29.39,East,90,0.0,0.0,91,0.00,,,0.00,meteohub,2013-09-13 12:57:00,
2013-09-13 08:02:00,48.2,45.7,29.39,East,90,0.0,0.0,91,0.00,,,0.00,meteohub,2013-09-13 13:02:00,
2013-09-13 08:07:00,48.4,45.9,29.39,SSE,158,0.0,0.0,91,0.00,,,0.00,meteohub,2013-09-13 13:07:00,
2013-09-13 08:12:00,48.7,46.2,29.39,SSE,158,0.0,0.0,91,0.00,,,0.00,meteohub,2013-09-13 13:12:00,
2013-09-13 08:17:00,49.3,46.8,29.39,SSE,158,0.0,0.0,91,0.00,,,0.00,meteohub,2013-09-13 13:17:00,
2013-09-13 08:22:00,49.5,46.9,29.42,South,180,0.0,0.0,91,0.00,,,0.00,meteohub,2013-09-13 13:22:00,
2013-09-13 08:27:00,50.0,47.5,29.42,SW,225,0.0,0.0,91,0.00,,,0.00,meteohub,2013-09-13 13:27:00,
2013-09-13 08:32:00,50.5,48.4,29.42,SSW,202,0.0,0.0,92,0.00,,,0.00,meteohub,2013-09-13 13:32:00,
2013-09-13 08:37:00,50.9,48.7,29.42,SSE,158,0.0,1.0,92,0.00,,,0.00,meteohub,2013-09-13 13:37:00,
2013-09-13 08:42:00,51.6,49.1,29.42,South,180,0.0,1.0,91,0.00,,,0.00,meteohub,2013-09-13 13:42:00,
2013-09-13 08:47:00,52.0,48.9,29.42,WSW,248,1.0,2.0,89,0.00,,,0.00,meteohub,2013-09-13 13:47:00,
2013-09-13 08:52:00,52.3,48.2,29.42,SSW,202,0.0,3.0,86,0.00,,,0.00,meteohub,2013-09-13 13:52:00,
2013-09-13 08:57:00,52.5,48.2,29.42,SSW,202,0.0,3.0,85,0.00,,,0.00,meteohub,2013-09-13 13:57:00,
2013-09-13 09:02:00,53.1,48.0,29.42,SSW,202,0.0,3.0,83,0.00,,,0.00,meteohub,2013-09-13 14:02:00,
2013-09-13 09:07:00,53.6,46.9,29.42,SSE,158,3.0,3.0,78,0.00,,,0.00,meteohub,2013-09-13 14:07:00,
2013-09-13 09:12:00,54.1,47.1,29.42,SSE,158,2.0,4.0,77,0.00,,,0.00,meteohub,2013-09-13 14:12:00,
2013-09-13 09:17:00,54.9,47.8,29.42,WSW,248,0.0,6.0,77,0.00,,,0.00,meteohub,2013-09-13 14:17:00,
2013-09-13 09:22:00,55.0,47.3,29.42,SSW,202,0.0,6.0,75,0.00,,,0.00,meteohub,2013-09-13 14:22:00,
2013-09-13 09:27:00,55.4,47.3,29.42,SSW,202,0.0,4.0,74,0.00,,,0.00,meteohub,2013-09-13 14:27:00,
2013-09-13 09:32:00,55.9,46.4,29.42,SSW,202,1.0,3.0,70,0.00,,,0.00,meteohub,2013-09-13 14:32:00,
2013-09-13 09:37:00,56.3,45.5,29.42,SSE,158,6.0,6.0,67,0.00,,,0.00,meteohub,2013-09-13 14:37:00,
2013-09-13 09:42:00,56.7,45.5,29.42,SSE,158,6.0,6.0,66,0.00,,,0.00,meteohub,2013-09-13 14:42:00,
2013-09-13 09:47:00,56.8,45.1,29.42,SSE,158,3.0,6.0,65,0.00,,,0.00,meteohub,2013-09-13 14:47:00,
2013-09-13 09:52:00,57.0,45.3,29.42,SSE,158,5.0,6.0,65,0.00,,,0.00,meteohub,2013-09-13 14:52:00,
2013-09-13 09:57:00,57.4,45.3,29.42,SSW,202,3.0,6.0,64,0.00,,,0.00,meteohub,2013-09-13 14:57:00,
2013-09-13 10:02:00,57.9,46.2,29.42,WSW,248,2.0,5.0,65,0.00,,,0.00,meteohub,2013-09-13 15:02:00,
2013-09-13 10:07:00,58.1,45.5,29.42,NE,45,0.0,4.0,63,0.00,,,0.00,meteohub,2013-09-13 15:07:00,
2013-09-13 10:12:00,58.5,45.1,29.42,South,180,3.0,4.0,61,0.00,,,0.00,meteohub,2013-09-13 15:12:00,
2013-09-13 10:17:00,59.0,45.1,29.42,South,180,0.0,3.0,60,0.00,,,0.00,meteohub,2013-09-13 15:17:00,
2013-09-13 10:22:00,59.4,44.6,29.42,SW,225,1.0,3.0,58,0.00,,,0.00,meteohub,2013-09-13 15:22:00,
2013-09-13 10:27:00,59.5,43.3,29.42,SSE,158,3.0,4.0,55,0.00,,,0.00,meteohub,2013-09-13 15:27:00,
2013-09-13 10:32:00,60.1,43.9,29.42,South,180,0.0,4.0,55,0.00,,,0.00,meteohub,2013-09-13 15:32:00,
2013-09-13 10:37:00,60.1,43.3,29.42,SSW,202,0.0,4.0,54,0.00,,,0.00,meteohub,2013-09-13 15:37:00,
2013-09-13 10:42:00,60.4,43.7,29.42,SW,225,0.0,4.0,54,0.00,,,0.00,meteohub,2013-09-13 15:42:00,
2013-09-13 10:47:00,60.6,43.3,29.42,SSW,202,1.0,3.0,53,0.00,,,0.00,meteohub,2013-09-13 15:47:00,
2013-09-13 10:52:00,61.2,43.3,29.42,NE,45,0.0,2.0,52,0.00,,,0.00,meteohub,2013-09-13 15:52:00,
2013-09-13 10:57:00,61.3,43.2,29.42,WSW,248,1.0,4.0,51,0.00,,,0.00,meteohub,2013-09-13 15:57:00,
2013-09-13 11:02:00,61.5,43.2,29.42,SSW,202,2.0,4.0,51,0.00,,,0.00,meteohub,2013-09-13 16:02:00,
2013-09-13 11:07:00,61.9,43.0,29.42,NE,45,0.0,4.0,50,0.00,,,0.00,meteohub,2013-09-13 16:07:00,
2013-09-13 11:12:00,62.6,43.7,29.42,SSE,158,1.0,4.0,50,0.00,,,0.00,meteohub,2013-09-13 16:12:00,
2013-09-13 11:17:00,63.5,43.0,29.42,SW,225,3.0,4.0,47,0.00,,,0.00,meteohub,2013-09-13 16:17:00,
2013-09-13 11:22:00,63.7,43.2,29.42,SSW,202,2.0,7.0,47,0.00,,,0.00,meteohub,2013-09-13 16:22:00,
2013-09-13 11:27:00,63.7,43.2,29.42,ESE,112,0.0,7.0,47,0.00,,,0.00,meteohub,2013-09-13 16:27:00,
2013-09-13 11:32:00,64.2,43.5,29.42,ENE,68,2.0,7.0,47,0.00,,,0.00,meteohub,2013-09-13 16:32:00,
2013-09-13 11:37:00,64.2,43.5,29.39,SSE,158,5.0,5.0,47,0.00,,,0.00,meteohub,2013-09-13 16:37:00,
2013-09-13 11:42:00,65.1,43.9,29.39,South,180,4.0,5.0,46,0.00,,,0.00,meteohub,2013-09-13 16:42:00,
2013-09-13 11:47:00,66.0,44.6,29.39,SW,225,3.0,6.0,46,0.00,,,0.00,meteohub,2013-09-13 16:47:00,
2013-09-13 11:52:00,67.1,44.4,29.39,South,180,2.0,6.0,44,0.00,,,0.00,meteohub,2013-09-13 16:52:00,
2013-09-13 11:57:00,68.0,44.8,29.39,SSW,202,3.0,6.0,43,0.00,,,0.00,meteohub,2013-09-13 16:57:00,
2013-09-13 12:02:00,68.4,45.0,29.39,West,270,1.0,6.0,43,0.00,,,0.00,meteohub,2013-09-13 17:02:00,
2013-09-13 12:07:00,68.9,45.0,29.39,NNE,22,2.0,4.0,42,0.00,,,0.00,meteohub,2013-09-13 17:07:00,
2013-09-13 12:12:00,68.9,45.0,29.39,ESE,112,1.0,4.0,42,0.00,,,0.00,meteohub,2013-09-13 17:12:00,
2013-09-13 12:17:00,69.4,44.8,29.39,ENE,68,2.0,4.0,41,0.00,,,0.00,meteohub,2013-09-13 17:17:00,
2013-09-13 12:22:00,69.8,45.1,29.36,ENE,68,3.0,4.0,41,0.00,,,0.00,meteohub,2013-09-13 17:22:00,
2013-09-13 12:27:00,69.8,44.4,29.36,SW,225,2.0,4.0,40,0.00,,,0.00,meteohub,2013-09-13 17:27:00,
2013-09-13 12:32:00,70.0,44.6,29.36,SSE,158,1.0,4.0,40,0.00,,,0.00,meteohub,2013-09-13 17:32:00,
2013-09-13 12:37:00,70.7,44.6,29.39,ESE,112,1.0,4.0,39,0.00,,,0.00,meteohub,2013-09-13 17:37:00,
2013-09-13 12:42:00,71.1,45.0,29.39,SSE,158,2.0,6.0,39,0.00,,,0.00,meteohub,2013-09-13 17:42:00,
2013-09-13 12:47:00,71.4,44.6,29.39,WSW,248,1.0,6.0,38,0.00,,,0.00,meteohub,2013-09-13 17:47:00,
2013-09-13 12:52:00,72.5,45.5,29.39,WNW,292,0.0,4.0,38,0.00,,,0.00,meteohub,2013-09-13 17:52:00,
2013-09-13 12:57:00,72.1,45.1,29.39,East,90,3.0,3.0,38,0.00,,,0.00,meteohub,2013-09-13 17:57:00,
2013-09-13 13:02:00,72.1,45.1,29.39,NNE,22,3.0,4.0,38,0.00,,,0.00,meteohub,2013-09-13 18:02:00,
2013-09-13 13:07:00,72.5,45.5,29.39,East,90,0.0,4.0,38,0.00,,,0.00,meteohub,2013-09-13 18:07:00,
2013-09-13 13:12:00,73.0,45.3,29.39,ENE,68,3.0,4.0,37,0.00,,,0.00,meteohub,2013-09-13 18:12:00,
2013-09-13 13:17:00,71.8,44.1,29.39,ESE,112,0.0,3.0,37,0.00,,,0.00,meteohub,2013-09-13 18:17:00,
2013-09-13 13:22:00,73.2,45.3,29.39,SSE,158,2.0,3.0,37,0.00,,,0.00,meteohub,2013-09-13 18:22:00,
2013-09-13 13:27:00,72.7,45.0,29.39,ENE,68,1.0,6.0,37,0.00,,,0.00,meteohub,2013-09-13 18:27:00,
2013-09-13 13:32:00,72.3,43.9,29.39,ENE,68,2.0,6.0,36,0.00,,,0.00,meteohub,2013-09-13 18:32:00,
2013-09-13 13:37:00,72.1,43.7,29.36,NE,45,1.0,6.0,36,0.00,,,0.00,meteohub,2013-09-13 18:37:00,
2013-09-13 13:42:00,73.4,44.8,29.36,ESE,112,0.0,4.0,36,0.00,,,0.00,meteohub,2013-09-13 18:42:00,
2013-09-13 13:47:00,73.8,45.1,29.36,SSE,158,3.0,4.0,36,0.00,,,0.00,meteohub,2013-09-13 18:47:00,
2013-09-13 13:52:00,72.5,43.3,29.36,SSE,158,5.0,5.0,35,0.00,,,0.00,meteohub,2013-09-13 18:52:00,
2013-09-13 13:57:00,73.6,44.2,29.36,SSW,202,1.0,5.0,35,0.00,,,0.00,meteohub,2013-09-13 18:57:00,
2013-09-13 14:02:00,74.1,44.8,29.36,South,180,1.0,5.0,35,0.00,,,0.00,meteohub,2013-09-13 19:02:00,
2013-09-13 14:07:00,74.5,45.1,29.36,NNE,22,1.0,5.0,35,0.00,,,0.00,meteohub,2013-09-13 19:07:00,
2013-09-13 14:12:00,74.1,44.8,29.36,NNE,22,1.0,4.0,35,0.00,,,0.00,meteohub,2013-09-13 19:12:00,
2013-09-13 14:17:00,75.4,45.9,29.36,NE,45,2.0,4.0,35,0.00,,,0.00,meteohub,2013-09-13 19:17:00,
2013-09-13 14:22:00,75.0,45.5,29.34,East,90,2.0,4.0,35,0.00,,,0.00,meteohub,2013-09-13 19:22:00,
2013-09-13 14:27:00,74.3,44.1,29.34,South,180,5.0,5.0,34,0.00,,,0.00,meteohub,2013-09-13 19:27:00,
2013-09-13 14:32:00,73.6,43.5,29.34,SSE,158,4.0,5.0,34,0.00,,,0.00,meteohub,2013-09-13 19:32:00,
2013-09-13 14:37:00,74.3,45.0,29.34,South,180,3.0,5.0,35,0.00,,,0.00,meteohub,2013-09-13 19:37:00,
2013-09-13 14:42:00,74.8,44.6,29.34,South,180,4.0,5.0,34,0.00,,,0.00,meteohub,2013-09-13 19:42:00,
2013-09-13 14:47:00,74.8,44.6,29.34,South,180,3.0,5.0,34,0.00,,,0.00,meteohub,2013-09-13 19:47:00,
2013-09-13 14:52:00,75.2,45.0,29.34,SSW,202,2.0,5.0,34,0.00,,,0.00,meteohub,2013-09-13 19:52:00,
2013-09-13 14:57:00,74.8,44.6,29.34,South,180,0.0,6.0,34,0.00,,,0.00,meteohub,2013-09-13 19:57:00,
2013-09-13 15:02:00,75.4,45.1,29.34,East,90,1.0,6.0,34,0.00,,,0.00,meteohub,2013-09-13 20:02:00,
2013-09-13 15:07:00,75.6,44.4,29.34,SE,135,3.0,6.0,33,0.00,,,0.00,meteohub,2013-09-13 20:07:00,
2013-09-13 15:12:00,75.4,44.2,29.34,SSE,158,1.0,6.0,33,0.00,,,0.00,meteohub,2013-09-13 20:12:00,
2013-09-13 15:17:00,75.6,44.4,29.34,ENE,68,2.0,7.0,33,0.00,,,0.00,meteohub,2013-09-13 20:17:00,
2013-09-13 15:22:00,75.9,44.8,29.34,NE,45,2.0,7.0,33,0.00,,,0.00,meteohub,2013-09-13 20:22:00,
2013-09-13 15:27:00,76.6,46.2,29.34,SSW,202,2.0,7.0,34,0.00,,,0.00,meteohub,2013-09-13 20:27:00,
2013-09-13 15:32:00,76.5,45.3,29.34,ENE,68,1.0,5.0,33,0.00,,,0.00,meteohub,2013-09-13 20:32:00,
2013-09-13 15:37:00,76.6,44.6,29.34,WSW,248,4.0,5.0,32,0.00,,,0.00,meteohub,2013-09-13 20:37:00,
2013-09-13 15:42:00,75.4,44.2,29.34,WNW,292,1.0,5.0,33,0.00,,,0.00,meteohub,2013-09-13 20:42:00,
2013-09-13 15:47:00,76.6,45.3,29.34,East,90,2.0,5.0,33,0.00,,,0.00,meteohub,2013-09-13 20:47:00,
2013-09-13 15:52:00,76.5,45.3,29.34,ENE,68,3.0,5.0,33,0.00,,,0.00,meteohub,2013-09-13 20:52:00,
2013-09-13 15:57:00,75.0,44.1,29.34,NNW,338,1.0,4.0,33,0.00,,,0.00,meteohub,2013-09-13 20:57:00,
2013-09-13 16:02:00,75.6,44.4,29.34,SE,135,0.0,4.0,33,0.00,,,0.00,meteohub,2013-09-13 21:02:00,
2013-09-13 16:07:00,75.7,44.6,29.31,East,90,0.0,4.0,33,0.00,,,0.00,meteohub,2013-09-13 21:07:00,
2013-09-13 16:12:00,75.0,44.1,29.31,ENE,68,2.0,5.0,33,0.00,,,0.00,meteohub,2013-09-13 21:12:00,
2013-09-13 16:17:00,75.4,44.2,29.31,NE,45,3.0,5.0,33,0.00,,,0.00,meteohub,2013-09-13 21:17:00,
2013-09-13 16:22:00,75.0,44.1,29.31,SSW,202,0.0,3.0,33,0.00,,,0.00,meteohub,2013-09-13 21:22:00,
2013-09-13 16:27:00,75.2,44.1,29.31,SSE,158,0.0,3.0,33,0.00,,,0.00,meteohub,2013-09-13 21:27:00,
2013-09-13 16:32:00,75.6,44.4,29.31,NE,45,2.0,3.0,33,0.00,,,0.00,meteohub,2013-09-13 21:32:00,
2013-09-13 16:37:00,74.1,43.2,29.31,NE,45,3.0,3.0,33,0.00,,,0.00,meteohub,2013-09-13 21:37:00,
2013-09-13 16:42:00,75.0,44.8,29.31,ESE,112,1.0,3.0,34,0.00,,,0.00,meteohub,2013-09-13 21:42:00,
2013-09-13 16:47:00,75.0,44.8,29.31,NE,45,0.0,3.0,34,0.00,,,0.00,meteohub,2013-09-13 21:47:00,
2013-09-13 16:52:00,75.4,44.2,29.31,NE,45,0.0,3.0,33,0.00,,,0.00,meteohub,2013-09-13 21:52:00,
2013-09-13 16:57:00,75.4,44.2,29.31,ENE,68,1.0,1.0,33,0.00,,,0.00,meteohub,2013-09-13 21:57:00,
2013-09-13 17:02:00,75.4,44.2,29.31,East,90,0.0,2.0,33,0.00,,,0.00,meteohub,2013-09-13 22:02:00,
2013-09-13 17:07:00,75.9,44.8,29.31,NE,45,0.0,2.0,33,0.00,,,0.00,meteohub,2013-09-13 22:07:00,
2013-09-13 17:12:00,75.6,44.4,29.31,ESE,112,0.0,2.0,33,0.00,,,0.00,meteohub,2013-09-13 22:12:00,
2013-09-13 17:17:00,74.5,43.5,29.31,SSW,202,0.0,4.0,33,0.00,,,0.00,meteohub,2013-09-13 22:17:00,
2013-09-13 17:22:00,74.5,43.5,29.31,SSE,158,0.0,4.0,33,0.00,,,0.00,meteohub,2013-09-13 22:22:00,
2013-09-13 17:27:00,74.5,43.5,29.31,South,180,0.0,4.0,33,0.00,,,0.00,meteohub,2013-09-13 22:27:00,
2013-09-13 17:32:00,75.6,44.4,29.31,South,180,0.0,4.0,33,0.00,,,0.00,meteohub,2013-09-13 22:32:00,
2013-09-13 17:37:00,74.7,43.7,29.28,North,0,1.0,3.0,33,0.00,,,0.00,meteohub,2013-09-13 22:37:00,
2013-09-13 17:42:00,75.0,44.8,29.28,SSE,158,0.0,2.0,34,0.00,,,0.00,meteohub,2013-09-13 22:42:00,
2013-09-13 17:47:00,73.8,43.0,29.28,South,180,4.0,4.0,33,0.00,,,0.00,meteohub,2013-09-13 22:47:00,
2013-09-13 17:52:00,72.7,42.8,29.28,South,180,0.0,5.0,34,0.00,,,0.00,meteohub,2013-09-13 22:52:00,
2013-09-13 17:57:00,72.0,42.1,29.28,South,180,0.0,5.0,34,0.00,,,0.00,meteohub,2013-09-13 22:57:00,
2013-09-13 18:02:00,69.8,41.0,29.28,SSE,158,1.0,4.0,35,0.00,,,0.00,meteohub,2013-09-13 23:02:00,
2013-09-13 18:07:00,69.1,41.0,29.28,SSE,158,0.0,3.0,36,0.00,,,0.00,meteohub,2013-09-13 23:07:00,
2013-09-13 18:12:00,68.7,40.6,29.28,SSE,158,0.0,2.0,36,0.00,,,0.00,meteohub,2013-09-13 23:12:00,
2013-09-13 18:17:00,68.5,40.6,29.28,SSW,202,2.0,2.0,36,0.00,,,0.00,meteohub,2013-09-13 23:17:00,
2013-09-13 18:22:00,68.0,40.8,29.25,SSE,158,0.0,3.0,37,0.00,,,0.00,meteohub,2013-09-13 23:22:00,
2013-09-13 18:27:00,67.6,41.2,29.25,South,180,0.0,3.0,38,0.00,,,0.00,meteohub,2013-09-13 23:27:00,
2013-09-13 18:32:00,67.3,40.8,29.25,SSE,158,3.0,3.0,38,0.00,,,0.00,meteohub,2013-09-13 23:32:00,
2013-09-13 18:37:00,66.9,41.2,29.28,SSE,158,0.0,3.0,39,0.00,,,0.00,meteohub,2013-09-13 23:37:00,
2013-09-13 18:42:00,66.4,40.6,29.28,SSE,158,0.0,3.0,39,0.00,,,0.00,meteohub,2013-09-13 23:42:00,
2013-09-13 18:47:00,66.0,41.0,29.28,SSE,158,2.0,3.0,40,0.00,,,0.00,meteohub,2013-09-13 23:47:00,
2013-09-13 18:52:00,65.8,41.5,29.25,SSE,158,3.0,3.0,41,0.00,,,0.00,meteohub,2013-09-13 23:52:00,
2013-09-13 18:57:00,65.7,41.4,29.25,South,180,1.0,3.0,41,0.00,,,0.00,meteohub,2013-09-13 23:57:00,
2013-09-13 19:02:00,65.3,41.7,29.25,SSE,158,0.0,3.0,42,0.00,,,0.00,meteohub,2013-09-14 00:02:00,
2013-09-13 19:07:00,64.9,41.4,29.28,SSE,158,0.0,3.0,42,0.00,,,0.00,meteohub,2013-09-14 00:07:00,
2013-09-13 19:12:00,64.6,41.5,29.28,South,180,0.0,2.0,43,0.00,,,0.00,meteohub,2013-09-14 00:12:00,
2013-09-13 19:17:00,63.7,41.4,29.28,South,180,0.0,2.0,44,0.00,,,0.00,meteohub,2013-09-14 00:17:00,
2013-09-13 19:22:00,63.1,40.8,29.28,South,180,0.0,2.0,44,0.00,,,0.00,meteohub,2013-09-14 00:22:00,
2013-09-13 19:27:00,62.4,40.8,29.28,South,180,0.0,0.0,45,0.00,,,0.00,meteohub,2013-09-14 00:27:00,
2013-09-13 19:32:00,61.7,40.1,29.28,South,180,0.0,0.0,45,0.00,,,0.00,meteohub,2013-09-14 00:32:00,
2013-09-13 19:37:00,61.3,40.5,29.28,South,180,0.0,0.0,46,0.00,,,0.00,meteohub,2013-09-14 00:37:00,
2013-09-13 19:42:00,61.2,40.3,29.28,South,180,0.0,0.0,46,0.00,,,0.00,meteohub,2013-09-14 00:42:00,
2013-09-13 19:47:00,60.6,40.3,29.28,South,180,0.0,0.0,47,0.00,,,0.00,meteohub,2013-09-14 00:47:00,
2013-09-13 19:52:00,60.3,39.9,29.28,South,180,0.0,0.0,47,0.00,,,0.00,meteohub,2013-09-14 00:52:00,
2013-09-13 19:57:00,60.1,39.7,29.28,South,180,0.0,0.0,47,0.00,,,0.00,meteohub,2013-09-14 00:57:00,
2013-09-13 20:02:00,59.7,39.6,29.28,South,180,0.0,0.0,47,0.00,,,0.00,meteohub,2013-09-14 01:02:00,
2013-09-13 20:07:00,59.5,39.9,29.28,South,180,0.0,0.0,48,0.00,,,0.00,meteohub,2013-09-14 01:07:00,
2013-09-13 20:12:00,59.4,39.7,29.28,South,180,0.0,0.0,48,0.00,,,0.00,meteohub,2013-09-14 01:12:00,
2013-09-13 20:17:00,59.2,39.6,29.28,South,180,0.0,0.0,48,0.00,,,0.00,meteohub,2013-09-14 01:17:00,
2013-09-13 20:22:00,59.0,39.4,29.28,South,180,0.0,0.0,48,0.00,,,0.00,meteohub,2013-09-14 01:22:00,
2013-09-13 20:27:00,58.8,39.7,29.28,South,180,0.0,0.0,49,0.00,,,0.00,meteohub,2013-09-14 01:27:00,
2013-09-13 20:32:00,58.6,40.1,29.28,South,180,0.0,0.0,50,0.00,,,0.00,meteohub,2013-09-14 01:32:00,
2013-09-13 20:37:00,58.5,39.9,29.28,South,180,0.0,0.0,50,0.00,,,0.00,meteohub,2013-09-14 01:37:00,
2013-09-13 20:42:00,58.3,40.3,29.28,South,180,0.0,0.0,51,0.00,,,0.00,meteohub,2013-09-14 01:42:00,
2013-09-13 20:47:00,58.3,40.3,29.28,South,180,0.0,0.0,51,0.00,,,0.00,meteohub,2013-09-14 01:47:00,
2013-09-13 20:52:00,58.1,40.6,29.28,South,180,0.0,0.0,52,0.00,,,0.00,meteohub,2013-09-14 01:52:00,
2013-09-13 20:57:00,58.1,40.6,29.28,South,180,0.0,0.0,52,0.00,,,0.00,meteohub,2013-09-14 01:57:00,
2013-09-13 21:02:00,57.7,40.8,29.28,South,180,0.0,0.0,53,0.00,,,0.00,meteohub,2013-09-14 02:02:00,
2013-09-13 21:07:00,57.6,41.0,29.28,South,180,0.0,0.0,54,0.00,,,0.00,meteohub,2013-09-14 02:07:00,
2013-09-13 21:12:00,57.7,41.2,29.28,SSE,158,0.0,0.0,54,0.00,,,0.00,meteohub,2013-09-14 02:12:00,
2013-09-13 21:17:00,57.6,41.5,29.28,SSE,158,0.0,0.0,55,0.00,,,0.00,meteohub,2013-09-14 02:17:00,
2013-09-13 21:22:00,57.7,42.3,29.28,South,180,0.0,0.0,56,0.00,,,0.00,meteohub,2013-09-14 02:22:00,
2013-09-13 21:27:00,57.6,42.1,29.28,South,180,0.0,3.0,56,0.00,,,0.00,meteohub,2013-09-14 02:27:00,
2013-09-13 21:32:00,57.7,42.6,29.28,SSE,158,0.0,3.0,57,0.00,,,0.00,meteohub,2013-09-14 02:32:00,
2013-09-13 21:37:00,57.9,42.8,29.28,SE,135,3.0,4.0,57,0.00,,,0.00,meteohub,2013-09-14 02:37:00,
2013-09-13 21:42:00,58.1,43.3,29.28,SSE,158,2.0,4.0,58,0.00,,,0.00,meteohub,2013-09-14 02:42:00,
2013-09-13 21:47:00,58.1,43.9,29.28,SSE,158,1.0,4.0,59,0.00,,,0.00,meteohub,2013-09-14 02:47:00,
2013-09-13 21:52:00,57.9,43.7,29.28,SSE,158,0.0,3.0,59,0.00,,,0.00,meteohub,2013-09-14 02:52:00,
2013-09-13 21:57:00,57.9,44.1,29.28,SSE,158,0.0,3.0,60,0.00,,,0.00,meteohub,2013-09-14 02:57:00,
2013-09-13 22:02:00,57.7,44.4,29.28,SSE,158,0.0,3.0,61,0.00,,,0.00,meteohub,2013-09-14 03:02:00,
2013-09-13 22:07:00,57.7,44.8,29.25,SSE,158,0.0,3.0,62,0.00,,,0.00,meteohub,2013-09-14 03:07:00,
2013-09-13 22:12:00,57.6,44.6,29.25,SSE,158,4.0,4.0,62,0.00,,,0.00,meteohub,2013-09-14 03:12:00,
2013-09-13 22:17:00,57.6,45.1,29.25,SSE,158,3.0,4.0,63,0.00,,,0.00,meteohub,2013-09-14 03:17:00,
2013-09-13 22:22:00,57.2,44.8,29.25,SSE,158,1.0,4.0,63,0.00,,,0.00,meteohub,2013-09-14 03:22:00,
2013-09-13 22:27:00,57.0,45.3,29.25,SSE,158,2.0,4.0,65,0.00,,,0.00,meteohub,2013-09-14 03:27:00,
2013-09-13 22:32:00,56.8,45.1,29.25,SSE,158,0.0,3.0,65,0.00,,,0.00,meteohub,2013-09-14 03:32:00,
2013-09-13 22:37:00,57.0,45.3,29.25,South,180,1.0,3.0,65,0.00,,,0.00,meteohub,2013-09-14 03:37:00,
2013-09-13 22:43:00,56.8,45.1,29.25,South,180,0.0,2.0,65,0.00,,,0.00,meteohub,2013-09-14 03:43:00,
2013-09-13 22:48:00,56.7,45.0,29.25,SE,135,1.0,3.0,65,0.00,,,0.00,meteohub,2013-09-14 03:48:00,
2013-09-13 22:53:00,56.7,45.0,29.25,SSE,158,0.0,3.0,65,0.00,,,0.00,meteohub,2013-09-14 03:53:00,
2013-09-13 22:58:00,56.7,45.0,29.25,SW,225,0.0,3.0,65,0.00,,,0.00,meteohub,2013-09-14 03:58:00,
2013-09-13 23:01:00,56.7,45.0,29.25,South,180,2.0,6.0,65,0.00,,,0.00,meteohub,2013-09-14 04:01:00,
2013-09-13 23:02:00,56.7,45.0,29.25,South,180,2.0,6.0,65,0.00,,,0.00,meteohub,2013-09-14 04:02:00,
2013-09-13 23:08:00,56.5,45.0,29.25,SSE,158,0.0,6.0,65,0.00,,,0.00,meteohub,2013-09-14 04:08:00,
2013-09-13 23:13:00,56.5,45.0,29.25,SSE,158,4.0,6.0,65,0.00,,,0.00,meteohub,2013-09-14 04:13:00,
2013-09-13 23:18:00,56.5,45.0,29.25,SSE,158,0.0,5.0,65,0.00,,,0.00,meteohub,2013-09-14 04:18:00,
2013-09-13 23:23:00,56.3,44.8,29.25,SE,135,0.0,5.0,65,0.00,,,0.00,meteohub,2013-09-14 04:23:00,
2013-09-13 23:28:00,56.3,44.8,29.25,SSE,158,3.0,5.0,65,0.00,,,0.00,meteohub,2013-09-14 04:28:00,
2013-09-13 23:33:00,56.3,44.8,29.25,South,180,2.0,6.0,65,0.00,,,0.00,meteohub,2013-09-14 04:33:00,
2013-09-13 23:39:00,55.9,44.4,29.25,South,180,0.0,6.0,65,0.00,,,0.00,meteohub,2013-09-14 04:39:00,
2013-09-13 23:44:00,55.6,44.1,29.25,SSE,158,0.0,6.0,65,0.00,,,0.00,meteohub,2013-09-14 04:44:00,
2013-09-13 23:49:00,55.2,44.1,29.25,South,180,0.0,3.0,66,0.00,,,0.00,meteohub,2013-09-14 04:49:00,
2013-09-13 23:54:00,54.7,43.5,29.25,SSW,202,0.0,3.0,66,0.00,,,0.00,meteohub,2013-09-14 04:54:00,
2013-09-13 23:59:00,54.5,43.3,29.25,SSE,158,1.0,3.0,66,0.00,,,0.00,meteohub,2013-09-14 04:59:00,